ONEWEB-0057, 45160

Orbit data source: Space-Track

ONEWEB-0057, 45160 is a payload satellite owned by One Web (UK) in LEO that was launched on Thu, 06 Feb 2020 UTC via a SOYUZ-2-1B launch vehicle from the Tyuratam Missile And Space Complex (TTMTR). Payloads include a variety of satellites, spacecraft, and rockets equipped with specific instruments for various scientific and technological missions. These include communications satellites like Starlink; space stations such as the ISS; scientific satellites like the Hubble; Earth observation satellites from companies like Planet Labs, Umbra, and HawkEye 360; GPS; miniature CubeSats for education and research; and military/defense satellites.

Loading next visibility...
ONEWEB-0057 details
Identifier
45160, 2020-008AF
Orbit
LEO
Last TLE update22 hours ago
Origin
Flag of UKOne Web (UK)
ManufacturerOne Web
MissionOperational Commercial Communications
Bus & MotorARROW, Unknown motor
Mass148 kg wet, ~140 kg dry
Launch date (UTC)
2020-02-06 (5 years ago)
Launch vehicle
SOYUZ-2-1B
Launch site
Tyuratam Missile And Space Complex (TTMTR)
Object type
Payload
Rocket body
Debris
Shape & HBRTrap Box + 2 Pan, 5 m
Radar Cross Section2.957 m², Large (>1 m²)

Expand to show TLE details & history

TLE from 22 hours ago
0 ONEWEB-0057
1 45160U 20008AF  24360.52164110 -.00000363  00000-0 -10764-2 0  9995
2 45160  87.8904 143.5700 0001511  93.7594 266.3707 13.10373514237808
Epoch: 2024-12-25T12:31Z
Definitive object data (Epoch: 2024-12-25T12:31:09.791Z)
Latitude0.00009°
Longitude-138.73498°
Altitude1,224.675 km
Speed7.242 km/s
True Right ascension09h 34m 16s
True Declination0° 00' 00"
Sunlit
Object was in full shadow at TLE epoch
Visualization TLE readout
Latitude76.71557°
Longitude-129.98979°
Altitude1,233.723 km
Speed7.245 km/s
Apparent Right ascension22h 18m 40s
Apparent Declination46° 30' 11"
Sunlit
Object is in daylight
Visualization observer readout
Local Sidereal Time10:15:18
Azimuth359.419° N
Elevation-3.578°
Doppler factor1
Orbital elements
Apogee altitude1,219.982 km
Perigee altitude1,217.686 km
Semi-major axis7,596.971 km
Eccentricity0.0001511
Inclination87.8904°
RAAN143.57°
Arg. of periapsis93.7594°
True anomaly266.35342°
Mean anomaly266.3707°
Eccentric anomaly266.36206°
Mean motion3.2778 °/min
BSTAR-0.0010764
Orbital period109.83 mins
Loading maneuver chart data...
Loading historical data...
Loading historical data...
Loading historical data...
Loading historical data...
Loading historical data...
Loading historical data...
Loading historical data...

ONEWEB-0057 Visibility forecast

Observer location: undefined°, undefined

Span
Click to sort rows by Start time (UTC) header in descending order
Start Az.
Max El. time (UTC)
Max El. Az.
Max El.
End time (UTC)
End Az.
8 mins2024-12-26 20:18:02.929Z36.093° NE2024-12-26 20:22:02.929Z71.095° E17.242°2024-12-26 20:26:02.929Z107.566° ESE
13 mins2024-12-26 22:07:02.929Z355.753° N2024-12-26 22:13:02.929Z273.951° WNW44.378°2024-12-26 22:20:02.929Z187.743° SSW
9 mins2024-12-27 08:39:02.929Z111.374° ESE2024-12-27 08:43:02.929Z73.838° E19.481°2024-12-27 08:48:02.929Z30.267° NE
13 mins2024-12-27 10:26:02.929Z190.438° SSW2024-12-27 10:32:02.929Z263.058° W43.13°2024-12-27 10:39:02.929Z355.33° N
|